This is the latest recevied weather packets stored in our database for station/object LZ1PDB-12. If no packets are shown the sender has not sent any weather packets the latest 10 day(s).
| Time | Temp. | Humidity | Pressure | Rain* | Wind** | Luminosity | Snow |
|---|---|---|---|---|---|---|---|
| 1777928563 | 12.78° C | 48% | 1022.3 hPa | - | - | - | - |
| 1777927663 | 12.78° C | 48% | 1022.3 hPa | - | - | - | - |
| 1777926762 | 13.33° C | 49% | 1022.4 hPa | - | - | - | - |
| 1777925862 | 12.78° C | 49% | 1022.4 hPa | - | - | - | - |
| 1777924961 | 13.89° C | 48% | 1022.4 hPa | - | - | - | - |
| 1777924060 | 13.89° C | 47% | 1022.5 hPa | - | - | - | - |
| 1777923160 | 13.89° C | 47% | 1022.5 hPa | - | - | - | - |
| 1777922260 | 13.89° C | 47% | 1022.5 hPa | - | - | - | - |
| 1777921360 | 14.44° C | 47% | 1022.2 hPa | - | - | - | - |
| 1777920459 | 14.44° C | 47% | 1022.1 hPa | - | - | - | - |
| 1777919559 | 15° C | 47% | 1022 hPa | - | - | - | - |
| 1777918659 | 15° C | 46% | 1021.8 hPa | - | - | - | - |
| 1777917759 | 15.56° C | 46% | 1021.8 hPa | - | - | - | - |
| 1777916859 | 15.56° C | 45% | 1021.9 hPa | - | - | - | - |
| 1777915959 | 16.11° C | 45% | 1021.8 hPa | - | - | - | - |
| 1777915058 | 16.11° C | 44% | 1021.8 hPa | - | - | - | - |
| 1777914158 | 16.67° C | 42% | 1021.7 hPa | - | - | - | - |
| 1777913258 | 17.22° C | 41% | 1021.7 hPa | - | - | - | - |
| 1777912358 | 17.22° C | 40% | 1021.7 hPa | - | - | - | - |
| 1777911458 | 17.22° C | 40% | 1021.7 hPa | - | - | - | - |
| 1777910558 | 17.78° C | 40% | 1021.7 hPa | - | - | - | - |
| 1777909657 | 17.78° C | 39% | 1021.8 hPa | - | - | - | - |
| 1777908757 | 17.78° C | 39% | 1021.9 hPa | - | - | - | - |
| 1777907857 | 17.78° C | 39% | 1021.9 hPa | - | - | - | - |
| 1777906956 | 17.78° C | 39% | 1022 hPa | - | - | - | - |
* Rain since midnight (hover to see other rain measurements)
** Current wind speed in m/s (hover to see current wind gust speed)